Find Gao Fen 12-04

NORAD ID: 57654 Int'l Des: 2023-123 Owner: ZLZB Country: CN operational
LEOCIRCULARRETROGRADESSO

リアルタイム位置

3D地球を読み込み中...

Gao Fen 12-04について

説明を読み込み中...

次回通過

Passes for default location (London). Set your location on the main map for personalized predictions.

高度履歴

Loading altitude history...

軌道要素

1 57654U 23123A 26105.94427291 .00000543 00000-0 78442-4 0 9991
2 57654 97.9130 24.8599 0001247 83.3161 276.8193 14.80106209143422
Epoch: Apr 15, 2026 • Age: 8 hours

現在のステータス

高度 652.3 km
速度 7.53 km/s
衛星直下点 -58.54°S, 96.21°E
打ち上げ日 Aug 20, 2023
運用期間 2.6 years
タイプ other

技術仕様

分類 Payload
質量 3000.00 kg
乾燥質量 3000.00 kg
総質量 3000.00 kg
長さ 2.00 m
直径 2.00 m
スパン 8.00 m
形状 Box + 3 Pan
製造者 SAST
バスタイプ CS-L3000B
フェーズステータス In Orbit
所有者/国 ZLZB/CN

Most Searched